Regional Weather Roundup
Issued by NWS Spokane, WA

Home | Current Version | Previous Version | Text Only | Print | Product List | Glossary On
Versions: 1 2 3 4 5 6 7 8 9 10 11 12 13 14 15 16 17 18 19 20 21 22 23 24 25 26 27 28 29 30 31 32 33 34 35 36 37 38 39 40 41 42 43 44 45 46 47 48 49 50
000
NZUS01 KOTX 231710
RWROTX
EASTERN WASHINGTON/NORTHERN IDAHO ROUNDUP
NATIONAL WEATHER SERVICE, SPOKANE WA
1000 AM PDT WED JUL 23 2014

Note: "fair" indicated few or no clouds below 12,000 feet with no
significant weather and/or obstructions to visibility.

...NORTHEAST WASHINGTON AND NORTHERN IDAHO PANHANDLE...

CITY           SKY/WX    TMP DP  RH WIND       PRES   REMARKS
SPOKANE INTL   MOSUNNY   74  53  48 E12       29.97F
SPOKANE DOWNTO SUNNY     77  56  48 MISG      29.97F
COEUR D ALENE  SUNNY     73  59  60 E12       29.99F
DEER PARK      SUNNY     75  55  49 E10       29.99F
SANDPOINT      SUNNY     72  55  56 NE12      30.01F

...SOUTHEAST WASHINGTON AND SOUTHERN IDAHO PANHANDLE...

CITY           SKY/WX    TMP DP  RH WIND       PRES   REMARKS
WALLA WALLA    SUNNY     78  56  46 VRB3      29.92F
PULLMAN/MOSCOW SUNNY     75  56  51 E13       29.99F
LEWISTON       SUNNY     80  57  45 SE14      29.92F
LOWELL           N/A     77  59  53 N5        29.95F

...COLUMBIA BASIN...

CITY           SKY/WX    TMP DP  RH WIND       PRES   REMARKS
EPHRATA        MOSUNNY   76  55  48 VRB3      29.91F
MOSES LAKE     PTSUNNY   75  57  53 SE3       29.91F
TRI CITIES     CLOUDY    75  60  59 W7        29.91S
HERMISTON      CLOUDY    76  61  59 W10       29.92F
PENDLETON      LGT RAIN  74  60  61 W17       29.94S

...EAST SLOPES CASCADES...

CITY           SKY/WX    TMP DP  RH WIND       PRES   REMARKS
THE DALLES     CLOUDY    66  56  70 MISG      29.97S
YAKIMA         CLOUDY    67  62  84 W8        29.96R
ELLENSBURG     RAIN      66  61  84 W5        29.97R
WENATCHEE      PTSUNNY   70  59  68 VRB6      29.94F
OMAK           MOSUNNY   77  54  44 N10       29.95F

...SOUTHERN BRITISH COLUMBIA...

CITY           SKY/WX    TMP DP  RH WIND       PRES   REMARKS
PENTICTON      CLOUDY    68  54  60 N6        29.98F
CASTLEGAR      PTSUNNY   70  55  60 N6        30.03F

...WESTERN MONTANA...

CITY           SKY/WX    TMP DP  RH WIND       PRES   REMARKS
MISSOULA       SUNNY     73  56  54 E9        30.10F

...NEIGHBORING CITIES...

CITY           SKY/WX    TMP DP  RH WIND       PRES   REMARKS
SEATTLE        LGT RAIN  61  60  97 S5        30.02R FOG
CALGARY        PTSUNNY   70  50  49 VRB5      30.08F



USA.gov is the U.S. government's official web portal to all federal, state and local government web resources and services.